Weather History for Fitchburg, MA

Change the Weather History Date:

Tuesday, February 12, 2013

  Actual Average (KORH) Record (KORH)
Temperature  
Mean Temperature 38 °F 26 °F  
Max Temperature 42 °F 34 °F 56 °F (1999)
Min Temperature 35 °F 19 °F -13 °F (1914)
Degree Days  
Heating Degree Days 26 39  
Month to date heating degree days 474  
Since 1 July heating degree days 4247  
Cooling Degree Days 0 0  
Month to date cooling degree days 0  
Year to date cooling degree days 0  
Moisture  
Dew Point 25 °F    
Average Humidity 60    
Maximum Humidity 68    
Minimum Humidity 51    
Precipitation  
Precipitation 0.00 in 0.12 in 1.65 in (1985)
Month to date precipitation 1.36  
Year to date precipitation 4.85  
Sea Level Pressure  
Sea Level Pressure 29.74 in    
Wind  
Wind Speed 12 mph (West)    
Max Wind Speed 26 mph    
Max Gust Speed 36 mph    
Visibility 10 miles    
Events      
T = Trace of Precipitation, MM = Missing Value Source: NWS Daily Summary

Daily Weather History Graph

Daily Weather History Graph

Search for Another Location

Airport:

Trip Planner

Search our weather history database for the weather conditions in past years. The results will help you decide how hot, cold, wet, or windy it might be!

Date:

Astronomy

Feb. 12, 2013 Rise Set
Actual Time 6:47 AM EST 5:15 PM EST
Civil Twilight 6:18 AM EST 5:44 PM EST
Nautical Twilight 5:45 AM EST 6:17 PM EST
Astronomical Twilight 5:12 AM EST 6:50 PM EST
Moon 7:38 AM EST (2/12) 8:18 PM EST (2/12)
Length of Visible Light 11h 26m
Length of Day
10h 27m
Waxing Crescent, 7% of the Moon is Illuminated
Feb 12
Waxing Crescent
Feb 17
First Quarter
Feb 25
Full
Mar 4
Last Quarter
Mar 11
New

Hourly Weather History & Observations

Time (EST) Temp. Windchill Dew Point Humidity Pressure Visibility Wind Dir Wind Speed Gust Speed Precip Events Conditions
1:52 AM 37.9 °F 30.5 °F 28.0 °F 68% 29.65 in 10.0 mi West 11.5 mph 20.7 mph N/A   Clear
2:52 AM 37.0 °F 33.3 °F 27.0 °F 67% 29.65 in 10.0 mi West 4.6 mph - N/A   Mostly Cloudy
3:52 AM 36.0 °F 29.6 °F 26.1 °F 67% 29.65 in 10.0 mi West 8.1 mph 17.3 mph N/A   Clear
4:52 AM 37.0 °F 29.3 °F 26.1 °F 65% 29.65 in 10.0 mi West 11.5 mph 18.4 mph N/A   Mostly Cloudy
5:52 AM 37.0 °F 31.0 °F 26.1 °F 65% 29.66 in 10.0 mi WNW 8.1 mph 17.3 mph N/A   Scattered Clouds
6:52 AM 37.9 °F 31.5 °F 26.1 °F 62% 29.67 in 10.0 mi WNW 9.2 mph - N/A   Overcast
7:52 AM 37.9 °F 30.5 °F 25.0 °F 60% 29.68 in 10.0 mi WNW 11.5 mph 18.4 mph N/A   Scattered Clouds
8:52 AM 39.0 °F 27.8 °F 24.1 °F 55% 29.69 in 10.0 mi West 26.5 mph 35.7 mph N/A   Mostly Cloudy
9:52 AM 41.0 °F 34.3 °F 25.0 °F 53% 29.70 in 10.0 mi West 11.5 mph 20.7 mph N/A   Mostly Cloudy
10:52 AM 41.0 °F 31.6 °F 24.1 °F 51% 29.72 in 10.0 mi West 20.7 mph 32.2 mph N/A   Overcast
11:52 AM 42.1 °F 34.5 °F 25.0 °F 51% 29.71 in 10.0 mi WNW 15.0 mph 27.6 mph N/A   Mostly Cloudy
12:52 PM 42.1 °F 32.6 °F 25.0 °F 51% 29.72 in 10.0 mi West 23.0 mph 31.1 mph N/A   Scattered Clouds
1:52 PM 41.0 °F 32.2 °F 26.1 °F 55% 29.73 in 10.0 mi West 18.4 mph 26.5 mph N/A   Mostly Cloudy
2:52 PM 39.9 °F 31.1 °F 26.1 °F 58% 29.76 in 10.0 mi West 17.3 mph 24.2 mph N/A   Overcast
3:52 PM 39.9 °F 32.9 °F 26.1 °F 58% 29.76 in 10.0 mi West 11.5 mph 25.3 mph N/A   Overcast
4:52 PM 39.0 °F 32.8 °F 26.1 °F 60% 29.77 in 10.0 mi West 9.2 mph 17.3 mph N/A   Overcast
5:52 PM 37.9 °F 30.9 °F 26.1 °F 62% 29.77 in 10.0 mi West 10.4 mph 19.6 mph N/A   Overcast
6:52 PM 37.0 °F 30.4 °F 26.1 °F 65% 29.80 in 10.0 mi West 9.2 mph 18.4 mph N/A   Overcast
7:52 PM 37.0 °F 28.9 °F 25.0 °F 62% 29.85 in 10.0 mi West 12.7 mph 20.7 mph N/A   Overcast
8:52 PM 37.0 °F 28.5 °F 24.1 °F 59% 29.88 in 10.0 mi West 13.8 mph 21.9 mph N/A   Overcast
9:52 PM 36.0 °F 28.0 °F 23.0 °F 59% 29.84 in 10.0 mi West 11.5 mph 23.0 mph N/A   Clear
10:52 PM 35.1 °F 26.4 °F 23.0 °F 61% 29.83 in 10.0 mi WNW 12.7 mph - N/A   Clear
11:52 PM 35.1 °F 26.4 °F 21.0 °F 57% 29.84 in 10.0 mi West 12.7 mph - N/A   Scattered Clouds